| time (UTC) | temp F | wind direction | speed knots | gust knots | rain 1hr in | rain 24hr in | rain mn in | humidity % | barometer mb |
| 20260504175122 | 65 | 145 | 0.9 | 2.6 | 0.01 | 0.01 | 0.01 | 74 | 993.2 |
| 20260504174122 | 66 | 241 | 0.9 | 3.5 | 0.01 | 0.01 | 0.01 | 67 | 993.2 |
| 20260504173126 | 67 | 162 | 1.7 | 4.3 | 0.00 | 0.00 | 0.00 | 64 | 993.2 |
| 20260504172126 | 67 | 204 | 0.9 | 3.5 | 0.00 | 0.00 | 0.00 | 64 | 992.9 |
| 20260504171126 | 68 | 9 | 0.9 | 2.6 | 0.00 | 0.00 | 0.00 | 63 | 993.1 |
| 20260504170122 | 68 | 210 | 3.5 | 6.1 | 0.00 | 0.00 | 0.00 | 60 | 993.1 |
| 20260504160125 | 68 | 183 | 7.0 | 9.6 | 0.00 | 0.00 | 0.00 | 56 | 993.8 |
| 20260504151122 | 70 | 226 | 4.3 | 7.8 | 0.00 | 0.00 | 0.00 | 52 | 994.2 |
| 20260504150125 | 70 | 192 | 4.3 | 7.8 | 0.00 | 0.00 | 0.00 | 52 | 994.2 |
| 20260504141122 | 73 | 186 | 5.2 | 9.6 | 0.00 | 0.00 | 0.00 | 51 | 994.4 |
| 20260504140122 | 71 | 195 | 5.2 | 8.7 | 0.00 | 0.00 | 0.00 | 52 | 994.4 |
| 20260504130122 | 63 | 185 | 4.3 | 7.0 | 0.00 | 0.00 | 0.00 | 65 | 995.1 |
| 20260504120124 | 61 | 174 | 5.2 | 7.0 | 0.00 | 0.00 | 0.00 | 68 | 995.2 |
| 20260504110146 | 61 | 191 | 4.3 | 6.1 | 0.00 | 0.00 | 0.00 | 65 | 995.2 |
| 20260504100122 | 63 | 192 | 4.3 | 7.0 | 0.00 | 0.00 | 0.00 | 62 | 995.2 |
| 20260504090122 | 63 | 185 | 3.5 | 7.0 | 0.00 | 0.00 | 0.00 | 62 | 995.2 |
| 20260504081124 | 65 | 151 | 1.7 | 3.5 | 0.00 | 0.00 | 0.00 | 60 | 995.2 |
| 20260504080122 | 64 | 132 | 1.7 | 4.3 | 0.00 | 0.00 | 0.00 | 61 | 995.2 |
| 20260504070124 | 64 | 141 | 0.9 | 2.6 | 0.00 | 0.00 | 0.00 | 61 | 995.7 |
| 20260504060122 | 66 | 356 | 5.2 | 7.0 | 0.00 | 0.00 | 0.00 | 56 | 996.6 |
| 20260504050122 | 68 | 209 | 5.2 | 10.4 | 0.00 | 0.00 | 0.00 | 51 | 994.8 |
| 20260504045122 | 68 | 214 | 4.3 | 6.1 | 0.00 | 0.00 | 0.00 | 51 | 994.7 |
| 20260504044122 | 68 | 179 | 3.5 | 7.0 | 0.00 | 0.00 | 0.00 | 52 | 994.8 |
| 20260504043123 | 67 | 198 | 2.6 | 4.3 | 0.00 | 0.00 | 0.00 | 53 | 995.4 |
| 20260504042124 | 68 | 177 | 3.5 | 7.8 | 0.00 | 0.00 | 0.00 | 53 | 995.4 |
| 20260504041124 | 69 | 173 | 4.3 | 7.0 | 0.00 | 0.00 | 0.00 | 50 | 995.8 |
| 20260504040122 | 69 | 199 | 4.3 | 6.1 | 0.00 | 0.00 | 0.00 | 49 | 995.8 |
| 20260504035122 | 68 | 198 | 3.5 | 5.2 | 0.00 | 0.00 | 0.00 | 49 | 996.2 |
| 20260504034122 | 68 | 191 | 3.5 | 4.3 | 0.00 | 0.00 | 0.00 | 49 | 996.2 |
| 20260504033122 | 68 | 176 | 3.5 | 4.3 | 0.00 | 0.00 | 0.00 | 49 | 996.2 |
| 20260504032122 | 69 | 175 | 2.6 | 4.3 | 0.00 | 0.00 | 0.00 | 49 | 996.4 |
| 20260504031124 | 69 | 170 | 0.9 | 3.5 | 0.00 | 0.00 | 0.00 | 48 | 996.2 |
| 20260504030124 | 70 | 190 | 2.6 | 4.3 | 0.00 | 0.00 | 0.00 | 46 | 996.2 |
| 20260504025123 | 70 | 188 | 1.7 | 3.5 | 0.00 | 0.00 | 0.00 | 46 | 996.4 |
| 20260504024122 | 70 | 209 | 1.7 | 4.3 | 0.00 | 0.00 | 0.00 | 45 | 996.2 |
| 20260504023122 | 71 | 191 | 2.6 | 5.2 | 0.00 | 0.00 | 0.00 | 44 | 996.1 |
| 20260504022143 | 71 | 178 | 3.5 | 5.2 | 0.00 | 0.00 | 0.00 | 43 | 996.0 |
| 20260504021122 | 71 | 195 | 3.5 | 6.1 | 0.00 | 0.00 | 0.00 | 42 | 995.8 |
| 20260504020122 | 71 | 181 | 3.5 | 7.0 | 0.00 | 0.00 | 0.00 | 42 | 995.8 |
| 20260504015124 | 72 | 180 | 4.3 | 7.0 | 0.00 | 0.00 | 0.00 | 42 | 995.7 |
| 20260504014124 | 72 | 176 | 5.2 | 8.7 | 0.00 | 0.00 | 0.00 | 41 | 995.6 |
| 20260504013123 | 73 | 176 | 4.3 | 6.1 | 0.00 | 0.00 | 0.00 | 40 | 995.6 |
| 20260504012122 | 73 | 191 | 4.3 | 6.1 | 0.00 | 0.00 | 0.00 | 39 | 995.5 |
| 20260504011122 | 75 | 193 | 3.5 | 8.7 | 0.00 | 0.00 | 0.00 | 38 | 995.5 |
| 20260504010143 | 75 | 184 | 3.5 | 6.1 | 0.00 | 0.00 | 0.00 | 38 | 995.5 |
| 20260504005122 | 75 | 214 | 3.5 | 6.1 | 0.00 | 0.00 | 0.00 | 38 | 995.2 |
| 20260504004122 | 76 | 208 | 4.3 | 7.0 | 0.00 | 0.00 | 0.00 | 36 | 995.4 |
| 20260504003145 | 76 | 199 | 4.3 | 7.0 | 0.00 | 0.00 | 0.00 | 36 | 995.4 |
| 20260504002123 | 76 | 222 | 4.3 | 8.7 | 0.00 | 0.00 | 0.00 | 36 | 995.4 |
| 20260504001124 | 77 | 219 | 5.2 | 8.7 | 0.00 | 0.00 | 0.00 | 34 | 995.6 |
| 20260504000122 | 77 | 213 | 6.1 | 9.6 | 0.00 | 0.00 | 0.00 | 33 | 995.6 |
| 20260503235143 | 78 | 231 | 5.2 | 9.6 | 0.00 | 0.00 | 0.00 | 32 | 995.7 |
| 20260503234122 | 78 | 222 | 5.2 | 7.0 | 0.00 | 0.00 | 0.00 | 32 | 995.8 |
| 20260503233122 | 79 | 241 | 3.5 | 7.8 | 0.00 | 0.00 | 0.00 | 31 | 995.8 |
| 20260503232143 | 79 | 235 | 5.2 | 11.3 | 0.00 | 0.00 | 0.00 | 31 | 996.0 |
| 20260503231144 | 80 | 233 | 6.1 | 10.4 | 0.00 | 0.00 | 0.00 | 30 | 996.1 |
| 20260503230124 | 79 | 215 | 5.2 | 8.7 | 0.00 | 0.00 | 0.00 | 30 | 996.1 |
| 20260503225124 | 80 | 234 | 5.2 | 10.4 | 0.00 | 0.00 | 0.00 | 29 | 996.1 |
| 20260503224122 | 81 | 228 | 5.2 | 9.6 | 0.00 | 0.00 | 0.00 | 29 | 996.1 |
| 20260503223122 | 80 | 223 | 5.2 | 7.0 | 0.00 | 0.00 | 0.00 | 29 | 996.2 |
| 20260503222122 | 80 | 213 | 5.2 | 10.4 | 0.00 | 0.00 | 0.00 | 28 | 996.2 |
| 20260503221122 | 80 | 210 | 6.1 | 9.6 | 0.00 | 0.00 | 0.00 | 29 | 996.4 |
| 20260503220145 | 80 | 209 | 5.2 | 7.8 | 0.00 | 0.00 | 0.00 | 29 | 996.4 |
| 20260503215124 | 79 | 207 | 6.1 | 10.4 | 0.00 | 0.00 | 0.00 | 31 | 996.7 |
| 20260503214123 | 79 | 198 | 5.2 | 10.4 | 0.00 | 0.00 | 0.00 | 30 | 996.7 |
| 20260503213122 | 79 | 191 | 7.0 | 11.3 | 0.00 | 0.00 | 0.00 | 31 | 996.7 |
| 20260503212122 | 77 | 187 | 7.8 | 13.9 | 0.00 | 0.00 | 0.00 | 31 | 996.9 |
| 20260503211122 | 77 | 187 | 10.4 | 14.8 | 0.00 | 0.00 | 0.00 | 32 | 997.0 |
| 20260503210122 | 77 | 198 | 7.8 | 12.2 | 0.00 | 0.00 | 0.00 | 31 | 997.0 |
| 20260503205122 | 77 | 177 | 9.6 | 13.9 | 0.00 | 0.00 | 0.00 | 32 | 997.2 |
| 20260503204144 | 76 | 188 | 9.6 | 15.6 | 0.00 | 0.00 | 0.00 | 32 | 997.6 |
| 20260503203123 | 77 | 197 | 8.7 | 14.8 | 0.00 | 0.00 | 0.00 | 32 | 997.9 |
| 20260503202123 | 77 | 198 | 7.8 | 11.3 | 0.00 | 0.00 | 0.00 | 32 | 998.2 |
| 20260503201122 | 77 | 202 | 7.8 | 14.8 | 0.00 | 0.00 | 0.00 | 32 | 998.4 |
| 20260503200143 | 76 | 204 | 7.0 | 12.2 | 0.00 | 0.00 | 0.00 | 30 | 998.4 |
| 20260503195122 | 75 | 195 | 8.7 | 12.2 | 0.00 | 0.00 | 0.00 | 32 | 998.9 |
| 20260503194122 | 75 | 183 | 7.8 | 13.9 | 0.00 | 0.00 | 0.00 | 32 | 999.0 |
| 20260503193123 | 75 | 181 | 7.0 | 10.4 | 0.00 | 0.00 | 0.00 | 32 | 999.5 |
| 20260503192124 | 74 | 190 | 8.7 | 13.9 | 0.00 | 0.00 | 0.00 | 33 | 1000.0 |
| 20260503191123 | 73 | 196 | 8.7 | 14.8 | 0.00 | 0.00 | 0.00 | 33 | 1000.1 |
| 20260503190143 | 73 | 204 | 6.1 | 13.0 | 0.00 | 0.00 | 0.00 | 33 | 1000.1 |
| 20260503185123 | 73 | 182 | 7.8 | 11.3 | 0.00 | 0.00 | 0.00 | 34 | 1000.4 |
| 20260503184122 | 72 | 205 | 7.8 | 13.0 | 0.00 | 0.00 | 0.00 | 34 | 1000.6 |
| 20260503183122 | 71 | 173 | 9.6 | 14.8 | 0.00 | 0.00 | 0.00 | 37 | 1000.9 |
| 20260503182122 | 71 | 169 | 8.7 | 11.3 | 0.00 | 0.00 | 0.00 | 36 | 1001.5 |
| 20260503181122 | 71 | 184 | 8.7 | 13.9 | 0.00 | 0.00 | 0.00 | 36 | 1001.8 |
| 20260503180123 | 71 | 190 | 7.0 | 14.8 | 0.00 | 0.00 | 0.00 | 36 | 1001.8 |